Preview of NWS' New Version of Forecast
This preview is not operational and should not be used for support decisions.

Regional Weather Roundup (RWR)

Issued by National Weather Service (NWS)

                            
000
ASUS43 KTOP 241959
RWRKS 

WEATHER ROUNDUP FOR KANSAS
NATIONAL WEATHER SERVICE GOODLAND KS
300 PM CDT MON JUN 24 2019

NOTE:  "FAIR" INDICATES FEW OR NO CLOUDS BELOW 12,000 FEET WITH NO
SIGNIFICANT WEATHER AND/OR OBSTRUCTIONS TO VISIBILITY.

KSZ001>006-013>018-027>032-041>047-242100-
NORTHWEST KANSAS
  
CITY           SKY/WX    TMP DP  RH WIND       PRES   REMARKS
GOODLAND       SUNNY     83  45  26 W13G21    29.88F                  
HAYS           SUNNY     83  54  36 SW20G25   29.86F                  
HILL CITY      SUNNY     86  50  28 SW12G22   29.84F                  
RUSSELL        SUNNY     83  51  33 SW13G22   29.85F                  
$$

KSZ061>065-074>080-084>089-242100-
SOUTHWEST KANSAS
  
CITY           SKY/WX    TMP DP  RH WIND       PRES   REMARKS
DODGE CITY     SUNNY     82  52  35 SW15G31   29.92F                  
GARDEN CITY    MOSUNNY   83  47  28 W15G22    29.91F                  
GREAT BEND     SUNNY     81  56  42 SW12      29.89F                  
LIBERAL        SUNNY     83  48  29 SW17G23   29.96F                  
$$

KSZ066>073-081>083-090>101-242100-
SOUTHEAST KANSAS
  
CITY           SKY/WX    TMP DP  RH WIND       PRES   REMARKS
CHANUTE        SUNNY     79  58  48 W12       29.92S                  
COFFEYVILLE    SUNNY     80  57  45 NW6       29.90F                  
HUTCHINSON     SUNNY     81  52  36 SW9G15    29.89F                  
MEDICINE LODGE   N/A     82  52  35 SW6G17    29.91F                  
NEWTON         SUNNY     78  57  48 SW12      29.91F                  
PARSONS        SUNNY     78  59  51 W8        29.93F                  
WICHITA INTL   SUNNY     81  55  40 SW6       29.91F                  
WICHITA JABRA  SUNNY     79  55  43 VRB3      29.91S                  
WICHITA MCCONL MOSUNNY   79  56  44 SW9       29.91F                  
WINFIELD       SUNNY     80  57  45 VRB3      29.93F                  
$$

KSZ007>012-019>026-033>040-048>060-102>105-242100-
NORTHEAST KANSAS
  
CITY           SKY/WX    TMP DP  RH WIND       PRES   REMARKS
CONCORDIA      SUNNY     81  53  37 SW8G23    29.85F                  
EMPORIA        SUNNY     77  57  50 W9        29.90F                  
MANHATTAN      SUNNY     81  56  42 SW9       29.86F                  
OLATHE IND     SUNNY     77  55  46 SW13      29.88S                  
OLATHE EXE     MOSUNNY   77  56  48 W8        29.87S                  
SALINA         SUNNY     81  53  37 SW10      29.87F                  
TOPEKA BILLARD SUNNY     79  57  46 SW9G17    29.85F                  
TOPEKA FORBES  SUNNY     80  57  45 SW12      29.87S                  
$$